SV2BBO-2 Thessaloniki GR current weather conditions

sailwx.info

Wind from 351 at 5 knots gusting 8

Air temperature 26.7° C
Dewpoint 2.5° C

Last reported at 2014-Aug-28 04:47 UTC.
Time now 2014-Aug-28 05:25 UTC

Location: N 40°38' E 022°57'.
View on Google Maps.

See reports from other nearby stations

  
Tides and Currents Weather Stations Pressure Air Temp Water Temp Dewpoint Dewpoint Depression Visibility Wind Speed Wind Dir Waves Ship Positions
date/time (UTC)wind fromknots sea level pressurealtimeterstation pressurevisibilityair tempwater tempwave heightnotes
2014-Aug-28 04:47 351 5 gusting 8 26.7
2014-Aug-28 04:37 005 9 gusting 9 26.7
2014-Aug-28 04:27 332 7 gusting 10 26.7
2014-Aug-28 04:17 342 7 gusting 7 26.7
2014-Aug-28 04:07 040 5 gusting 8 27.2
2014-Aug-28 03:57 010 6 gusting 10 27.2
2014-Aug-28 03:47 327 6 gusting 5 27.2
2014-Aug-28 03:37 356 4 gusting 3 27.8
2014-Aug-28 03:27 316 4 gusting 3 27.8
2014-Aug-28 03:17 323 3 gusting 5 27.2
2014-Aug-28 03:07 359 5 gusting 5 27.2
2014-Aug-28 02:57 024 6 gusting 6 27.8
2014-Aug-28 02:47 028 6 gusting 8 27.8
2014-Aug-28 02:37 005 5 gusting 6 27.2
2014-Aug-28 02:27 015 3 gusting 7 27.2
2014-Aug-28 02:17 037 6 gusting 6 27.2
2014-Aug-28 02:07 015 5 gusting 7 26.7
2014-Aug-28 01:57 005 3 gusting 3 26.7
2014-Aug-28 01:47 325 0 gusting 3 26.7
2014-Aug-27 07:17 229 3 gusting 5 28.3
2014-Aug-27 07:07 228 2 gusting 5 28.3
2014-Aug-27 06:57 226 3 gusting 3 28.3
2014-Aug-27 06:47 105 2 gusting 3 28.3
2014-Aug-27 06:37 218 3 gusting 4 28.3
2014-Aug-27 06:27 231 2 gusting 3 27.8
2014-Aug-27 06:17 202 3 gusting 3 27.8
2014-Aug-27 06:07 234 27.8
2014-Aug-27 05:57 114 2 gusting 3 27.8
2014-Aug-27 05:47 138 2 gusting 3 27.2
2014-Aug-27 05:37 114 2 gusting 3 26.7
2014-Aug-27 05:27 199 2 gusting 2 26.1
2014-Aug-27 05:17 210 2 gusting 3 26.1
2014-Aug-27 05:07 217 26.1
2014-Aug-27 04:57 217 25.6
2014-Aug-27 04:47 217 1 gusting 2 25.6
2014-Aug-27 04:37 224 1 gusting 3 26.1
2014-Aug-27 04:27 167 2 gusting 3 26.1
2014-Aug-27 04:17 131 26.1
2014-Aug-27 04:07 104 1 gusting 2 26.1
2014-Aug-27 03:57 139 2 gusting 2 26.1
2014-Aug-27 03:47 179 26.1
2014-Aug-27 03:37 181 26.1
2014-Aug-27 03:27 200 26.1
2014-Aug-27 03:17 228 26.1
2014-Aug-27 03:07 221 2 gusting 3 26.1
2014-Aug-27 02:57 081 2 gusting 3 26.1
2014-Aug-27 02:47 069 26.1
2014-Aug-27 02:37 069 2 gusting 2 26.1
2014-Aug-27 02:27 069 26.1
2014-Aug-27 02:17 069 1 gusting 3 26.1
2014-Aug-27 02:07 068 2 gusting 3 26.7
2014-Aug-27 01:57 068 26.1
2014-Aug-27 01:47 068 2 gusting 3 26.7
2014-Aug-27 01:37 081 26.7
2014-Aug-27 01:27 081 26.7
2014-Aug-27 01:17 082 26.7
2014-Aug-27 01:07 077 1 gusting 3 26.7
2014-Aug-27 00:57 060 26.7
2014-Aug-27 00:47 060 26.7
2014-Aug-27 00:37 059 26.7
2014-Aug-27 00:27 060 26.7
2014-Aug-27 00:17 060 26.7
2014-Aug-27 00:07 059 3 gusting 3 26.1
2014-Aug-26 23:57 058 2 gusting 3 26.7
2014-Aug-26 23:47 058 26.7
2014-Aug-26 23:37 054 3 gusting 4 26.7
2014-Aug-26 23:27 095 26.7
2014-Aug-26 23:17 092 0 gusting 2 27.8
2014-Aug-26 23:07 089 27.2
2014-Aug-26 22:57 088 1 27.8
2014-Aug-26 22:47 111 2 gusting 3 27.8
2014-Aug-26 22:37 079 27.8
2014-Aug-26 22:27 101 27.8
2014-Aug-26 22:17 114 2 gusting 3 27.8
2014-Aug-26 22:07 101 2 gusting 3 27.8
2014-Aug-26 21:57 101 27.8
2014-Aug-26 21:47 094 27.8
2014-Aug-26 21:37 095 27.8
2014-Aug-26 21:27 103 2 gusting 3 27.8
2014-Aug-26 21:17 085 1 gusting 3 27.8
2014-Aug-26 21:07 109 27.8
2014-Aug-26 20:57 081 2 gusting 2 27.8
2014-Aug-26 20:47 075 2 gusting 3 27.8
2014-Aug-26 20:37 091 2 gusting 3 28.3
2014-Aug-26 20:27 092 1 gusting 3 28.3
2014-Aug-26 20:17 143 0 gusting 3 28.3
2014-Aug-26 20:07 154 28.3
2014-Aug-26 19:57 164 3 gusting 4 28.3
2014-Aug-26 19:47 143 28.3
2014-Aug-26 19:37 139 2 gusting 3 28.3
2014-Aug-26 19:27 138 3 gusting 5 28.3
2014-Aug-26 19:17 139 2 gusting 3 28.9
2014-Aug-26 19:07 164 2 gusting 4 28.9
2014-Aug-26 18:57 133 3 gusting 5 28.9
2014-Aug-26 18:47 171 3 gusting 5 28.9
2014-Aug-26 18:37 149 3 gusting 5 28.3
2014-Aug-26 18:27 186 3 gusting 4 28.3
2014-Aug-26 18:17 213 4 gusting 6 28.3
2014-Aug-26 18:07 215 3 gusting 4 28.3
2014-Aug-26 17:57 203 3 gusting 4 28.3
2014-Aug-26 17:47 191 3 gusting 4 28.3
2014-Aug-26 17:37 202 3 gusting 4 28.3
2014-Aug-26 17:27 170 3 gusting 3 28.3
2014-Aug-26 17:17 192 3 gusting 6 28.9
2014-Aug-26 17:07 224 4 gusting 5 28.9
2014-Aug-26 16:57 233 3 gusting 6 29.4
2014-Aug-26 16:47 214 5 gusting 6 29.4
2014-Aug-26 16:37 205 4 gusting 6 28.9
2014-Aug-26 16:27 198 4 gusting 5 29.4
2014-Aug-26 16:17 203 4 gusting 6 29.4
2014-Aug-26 16:07 198 4 gusting 5 30.0
2014-Aug-26 15:57 237 4 gusting 6 30.0
2014-Aug-26 15:47 228 5 gusting 6 29.4
2014-Aug-26 15:37 206 3 gusting 6 29.4
2014-Aug-26 15:27 244 6 gusting 6 30.0
2014-Aug-26 15:17 241 5 gusting 6 30.0
2014-Aug-26 15:07 229 4 gusting 5 30.0
2014-Aug-26 14:57 252 4 gusting 6 29.4
2014-Aug-26 14:47 234 6 gusting 5 29.4
2014-Aug-26 14:37 249 3 gusting 3 29.4
2014-Aug-26 14:27 247 5 gusting 6 29.4
2014-Aug-26 14:17 231 5 gusting 7 29.4
2014-Aug-26 14:07 229 4 gusting 6 29.4
2014-Aug-26 13:57 290 5 gusting 6 29.4
2014-Aug-26 13:47 250 4 gusting 3 29.4
2014-Aug-26 13:37 218 4 gusting 4 29.4
2014-Aug-26 13:27 219 6 gusting 6 29.4
2014-Aug-26 13:17 211 4 gusting 5 29.4
2014-Aug-26 13:07 213 3 gusting 5 29.4
2014-Aug-26 12:57 219 5 gusting 6 29.4
2014-Aug-26 12:47 219 3 gusting 6 29.4
2014-Aug-26 12:37 222 4 gusting 4 29.4
2014-Aug-26 12:27 244 6 gusting 7 28.9
2014-Aug-26 12:17 222 3 gusting 6 29.4
2014-Aug-26 12:07 221 6 gusting 7 29.4
2014-Aug-26 11:57 222 3 gusting 6 29.4
2014-Aug-26 11:47 231 4 gusting 7 29.4
2014-Aug-26 11:37 210 5 gusting 5 29.4
2014-Aug-26 11:27 248 3 gusting 6 29.4
2014-Aug-26 11:17 227 4 gusting 5 29.4
2014-Aug-26 11:07 226 4 gusting 5 28.9
2014-Aug-26 10:57 229 3 gusting 3 28.9
2014-Aug-26 10:47 237 3 gusting 4 28.9
2014-Aug-26 10:37 269 3 gusting 2 28.9
2014-Aug-26 10:27 264 2 gusting 3 28.9
2014-Aug-26 10:17 252 4 gusting 6 28.9
2014-Aug-26 10:07 217 4 gusting 5 28.9
2014-Aug-26 09:57 178 2 gusting 3 28.9
2014-Aug-26 09:47 188 3 gusting 5 29.4
2014-Aug-26 09:37 224 6 gusting 6 28.9
2014-Aug-26 09:27 233 4 gusting 6 28.9
2014-Aug-26 09:17 231 5 gusting 5 28.9
2014-Aug-26 09:07 234 5 gusting 5 28.9
2014-Aug-26 08:57 224 3 gusting 4 28.9
2014-Aug-26 08:47 223 4 gusting 6 28.9
2014-Aug-26 08:37 233 5 gusting 6 28.3
2014-Aug-26 08:27 227 3 gusting 6 28.3
2014-Aug-26 08:17 246 4 gusting 5 28.3
2014-Aug-26 08:07 242 3 gusting 6 28.3
2014-Aug-26 07:57 261 4 gusting 5 28.9
2014-Aug-26 07:47 243 3 gusting 5 28.3
2014-Aug-26 07:37 283 3 gusting 3 28.9
2014-Aug-26 07:27 228 5 gusting 6 28.3
2014-Aug-26 07:17 264 4 gusting 4 28.3
2014-Aug-26 07:07 239 2 gusting 5 28.3
2014-Aug-26 06:57 242 3 gusting 3 28.3
2014-Aug-26 06:47 249 3 gusting 4 28.3
2014-Aug-26 06:37 273 2 gusting 3 28.3
2014-Aug-26 06:27 217 2 gusting 2 28.9
2014-Aug-26 06:17 230 4 gusting 6 28.3
2014-Aug-26 06:07 235 3 gusting 3 28.3
2014-Aug-26 05:57 233 28.3
2014-Aug-26 05:47 267 2 gusting 2 27.8
2014-Aug-26 05:37 263 27.8
2014-Aug-26 05:27 047 27.2
2014-Aug-26 05:17 067 2 gusting 3 26.7
2014-Aug-26 05:07 059 26.7